Home > Weather > Monterey > Past weeks

Flag for U.S.A. Weather for the Past 2 Weeks in Monterey, California, U.S.A.

Now
67 °F

Sunny.


Feels Like: 67 °F
Forecast: 47 / 65 °F
Wind: 6 mph from Northwest

Location: Monterey Peninsula Airport

Current Time: Feb 6, 2016 at 3:46:10 PM

Latest Report: Feb 6, 2016 at 2:54 PM


Visibility: 10 mi

Pressure: 30.32 "Hg

Humidity: 47%

Dew point: 46 °F

Location of MontereyLocation

Historic Weather in Monterey — Graph

°F

Monterey Temperature Yesterday

Maximum temperature yesterday: 65 °F (at 12:54 PM)
Minimum temperature yesterday: 40 °F (at 5:54 AM)
Average temperature yesterday: 50 °F

High & Low Weather Summary for the Past Weeks

 TemperatureHumidityPressure
High69 °F (Feb 6, 12:54 PM)97% (Jan 22, 5:54 PM)30.47 "Hg (Jan 22, 5:54 PM)
Low40 °F (Feb 5, 5:54 AM)31% (Feb 1, 10:54 AM)29.84 "Hg (Jan 31, 1:54 PM)
Average52 °F76%30.25 "Hg
* Reported Jan 22 2:54 PM — Feb 6 2:54 PM, Monterey, Weather by CustomWeather, © 2016

Note: Actual official high and low records may vary slightly from our data, if they occured in-between our weather recording intervals... More about our weather records

Advertising

Monterey Weather History for the Previous 24 Hours

 ConditionsComfort  
Time TempWeatherWind HumidityBarometerVisibility
2:54 PM
Sat, Feb 6
67 °FSunny.6 mph47%30.32 "Hg10 mi
1:54 PM67 °FSunny.7 mph44%30.34 "Hg10 mi
12:54 PM69 °FSunny.7 mph33%30.35 "Hg10 mi
11:54 AM66 °FSunny.6 mph39%30.39 "Hg10 mi
10:54 AM61 °FSunny.No wind46%30.42 "Hg10 mi
9:54 AM53 °FSunny.3 mph61%30.44 "Hg10 mi
8:54 AM50 °FSunny.3 mph63%30.42 "Hg10 mi
7:54 AM45 °FSunny.5 mph74%30.42 "Hg10 mi
6:54 AM45 °FClear.6 mph68%30.40 "Hg10 mi
5:54 AM46 °FClear.No wind73%30.38 "Hg10 mi
4:54 AM46 °FClear.No wind68%30.37 "Hg10 mi
3:54 AM46 °FClear.5 mph71%30.38 "Hg10 mi
2:54 AM47 °FClear.3 mph74%30.39 "Hg10 mi
1:54 AM49 °FClear.7 mph71%30.40 "Hg10 mi
12:54 AM51 °FClear.10 mph63%30.40 "Hg10 mi
11:54 PM
Fri, Feb 5
48 °FClear.9 mph77%30.43 "Hg10 mi
10:54 PM47 °FClear.No wind80%30.47 "Hg10 mi
9:54 PM47 °FClear.8 mph83%30.43 "Hg10 mi
8:54 PM49 °FClear.3 mph80%30.42 "Hg10 mi
7:54 PM50 °FClear.5 mph83%30.40 "Hg10 mi
6:54 PM52 °FClear.5 mph86%30.40 "Hg10 mi
5:54 PM55 °FClear.5 mph87%30.39 "Hg9 mi
4:54 PM58 °FSunny.No wind72%30.37 "Hg10 mi
3:54 PM59 °FSunny.3 mph62%30.37 "Hg10 mi
Weather by CustomWeather, © 2016

See weather overviewHow to use our weather pages